Location: Mahannah Oil Field
(37.4664°N, 96.6003°W)
Time: 13:22:48
(UTC+00:00)

Altair - Pass Details

Date: 24 January 2021
Orbit: 1501 x 1682 km, 47.2° (Epoch: 05 March)

Event Time Altitude Azimuth Distance (km) Brightness Sun altitude
Exits shadow 08:59:18 21° 113° (ESE) 3,087 9.2 -54.3°
Drops below altitude 10° 09:04:51 10° 79° (E) 3,927 10.0 -53.3°
Sets 09:08:58 0° 66° (ENE) 4,931 10.7 -52.5°
